TimeCDT,TemperatureF,Dew PointF,Humidity,Sea Level PressureIn,VisibilityMPH,Wind Direction,Wind SpeedMPH,Gust SpeedMPH,PrecipitationIn,Events,Conditions,WindDirDegrees,DateUTC
12:54 AM,66.9,57.9,73,29.97,10.0,South,8.1,-,N/A,,Mostly Cloudy,170,2012-10-25 05:54:00
1:54 AM,66.9,57.9,73,29.96,10.0,South,8.1,-,N/A,,Mostly Cloudy,170,2012-10-25 06:54:00
2:54 AM,66.9,57.0,70,29.95,10.0,South,9.2,-,N/A,,Scattered Clouds,170,2012-10-25 07:54:00
3:54 AM,66.0,57.0,73,29.94,10.0,SSE,10.4,-,N/A,,Mostly Cloudy,160,2012-10-25 08:54:00
4:54 AM,66.0,57.0,73,29.94,10.0,South,6.9,-,N/A,,Mostly Cloudy,170,2012-10-25 09:54:00
5:54 AM,64.9,57.0,75,29.95,10.0,SSE,6.9,-,N/A,,Scattered Clouds,160,2012-10-25 10:54:00
6:54 AM,64.0,57.0,78,29.98,10.0,South,3.5,-,N/A,,Mostly Cloudy,190,2012-10-25 11:54:00
7:54 AM,64.9,57.9,78,29.99,10.0,South,4.6,-,N/A,,Overcast,190,2012-10-25 12:54:00
8:54 AM,66.9,59.0,76,30.00,10.0,South,10.4,-,N/A,,Overcast,180,2012-10-25 13:54:00
9:54 AM,70.0,61.0,73,30.01,10.0,SSW,10.4,-,N/A,,Mostly Cloudy,200,2012-10-25 14:54:00
10:54 AM,73.9,63.0,68,30.01,10.0,SSW,10.4,-,N/A,,Mostly Cloudy,200,2012-10-25 15:54:00
11:54 AM,75.9,64.0,67,30.00,10.0,SSW,10.4,18.4,N/A,,Scattered Clouds,200,2012-10-25 16:54:00
12:54 PM,78.1,63.0,60,29.97,10.0,South,15.0,-,N/A,,Scattered Clouds,190,2012-10-25 17:54:00
1:54 PM,80.1,62.1,54,29.95,10.0,South,13.8,-,N/A,,Scattered Clouds,190,2012-10-25 18:54:00
2:54 PM,80.6,60.8,51,29.94,10.0,South,13.8,-,N/A,,Scattered Clouds,180,2012-10-25 19:54:00
3:54 PM,80.1,60.1,50,29.93,10.0,South,16.1,-,N/A,,Partly Cloudy,190,2012-10-25 20:54:00
4:54 PM,79.0,60.1,52,29.93,10.0,South,15.0,19.6,N/A,,Scattered Clouds,190,2012-10-25 21:54:00
5:54 PM,77.0,59.0,54,29.93,10.0,South,10.4,-,N/A,,Scattered Clouds,180,2012-10-25 22:54:00
6:54 PM,75.0,60.1,60,29.94,10.0,SSE,6.9,-,N/A,,Scattered Clouds,160,2012-10-25 23:54:00
7:54 PM,73.0,60.1,64,29.94,10.0,SSE,9.2,-,N/A,,Partly Cloudy,150,2012-10-26 00:54:00
8:54 PM,72.0,61.0,68,29.93,10.0,SSE,11.5,-,N/A,,Scattered Clouds,150,2012-10-26 01:54:00
10:54 PM,69.1,60.1,73,29.96,10.0,South,5.8,-,N/A,,Scattered Clouds,170,2012-10-26 03:54:00
11:54 PM,70.0,61.0,73,29.98,10.0,Variable,4.6,-,N/A,,Mostly Cloudy,0,2012-10-26 04:54:00